STARLINK-3327 (50819 NORAD) Tracking and Keplerian Element Data

This shows tracking and keplerian element data for the satellite.

Feedback or suggestion? Click here.




ElementValue
Catalog50819
NameSTARLINK-3327
Epoch Orbit375
Epoch Day22.91667824
Epoch Year2022
RAAN119.7769
Inclination53.2175
Eccentricity0.0001051
Argument of Perigee79.3405
Mean Anonmoly227.8057
Mean Motion15.7513287
Decay Rate-0.00821034
L11 50819U 22001S 22022.91667824 -.00821034 00000+0 -59214-2 0 9991
L22 50819 53.2175 119.7769 0001051 79.3405 227.8057 15.75132870 3758

Live tracking and technical data element details for STARLINK-3327 (NORAD 50819). STARLINK-3327 can be tracked NOW for your location showing map with azimuth and elevation plus other details from your city location.

Track the satellite on the map from your city or location and see movement details for azimuth, elevation, latitude, longitude, range, height, and movement on the map or in text.







IsCatalogInMostPopularTable: catalog: 50819, numindb: 1
Update: records affected: 1



GetName: 50819 STARLINK-3327

Hit Count: updated at: Mon, 24 Jan 2022 00:24:15 GMT